Weather History for Lakeland Region, FL

Change the Weather History Date:

Sunday, November 11, 2012

  Actual Average Record
Temperature  
Mean Temperature 68 °F -  
Max Temperature 80 °F 75 °F 86 °F (1998)
Min Temperature 55 °F 58 °F 45 °F (1991)
Cooling Degree Days 2    
Growing Degree Days 18 (Base 50)    
Moisture  
Dew Point 55 °F    
Average Humidity 78    
Maximum Humidity 94    
Minimum Humidity 47    
Precipitation  
Precipitation 0.00 in - - ()
Sea Level Pressure  
Sea Level Pressure 30.26 in    
Wind  
Wind Speed 6 mph (ENE)    
Max Wind Speed 16 mph    
Max Gust Speed 23 mph    
Visibility 12 miles    
Events      
Averages and records for this station are not official NWS values.
T = Trace of Precipitation, MM = Missing Value Source: NWS Daily Summary

Daily Weather History Graph

Daily Weather History Graph

Search for Another Location

Airport:

Trip Planner

Search our weather history database for the weather conditions in past years. The results will help you decide how hot, cold, wet, or windy it might be!

Date:

Astronomy

Nov. 11, 2012 Rise Set
Actual Time 6:46 AM EST 5:37 PM EST
Civil Twilight 6:22 AM EST 6:01 PM EST
Nautical Twilight 5:54 AM EST 6:29 PM EST
Astronomical Twilight 5:26 AM EST 6:57 PM EST
Moon 4:10 AM EST (11/11) 3:51 PM EST (11/11)
Length of Visible Light 11h 39m
Length of Day
10h 50m
Waning Crescent, 7% of the Moon is Illuminated
Nov 11
Waning Crescent
Nov 13
New
Nov 20
First Quarter
Nov 28
Full
Dec 6
Last Quarter

Hourly Weather History & Observations

Time (EST) Temp. Heat Index Dew Point Humidity Pressure Visibility Wind Dir Wind Speed Gust Speed Precip Events Conditions
12:15 AM 59.0 °F - 51.8 °F 77% 30.28 in 10.0 mi NE 3.5 mph - N/A   Scattered Clouds
12:35 AM 57.2 °F - 51.8 °F 82% 30.27 in 10.0 mi NE 4.6 mph - N/A   Mostly Cloudy
12:55 AM 59.0 °F - 53.6 °F 82% 30.27 in 10.0 mi NNE 4.6 mph - N/A   Overcast
1:15 AM 59.0 °F - 53.6 °F 82% 30.27 in 10.0 mi ENE 4.6 mph - N/A   Overcast
1:35 AM 57.2 °F - 51.8 °F 82% 30.26 in 10.0 mi NE 6.9 mph - N/A   Scattered Clouds
1:55 AM 59.0 °F - 51.8 °F 77% 30.26 in 10.0 mi NE 4.6 mph - N/A   Clear
2:15 AM 57.2 °F - 51.8 °F 82% 30.26 in 10.0 mi NNE 4.6 mph - N/A   Scattered Clouds
2:35 AM 57.2 °F - 51.8 °F 82% 30.26 in 10.0 mi NNE 5.8 mph - N/A   Clear
2:55 AM 55.4 °F - 51.8 °F 88% 30.26 in 10.0 mi NNE 6.9 mph - N/A   Clear
3:15 AM 55.4 °F - 51.8 °F 88% 30.25 in 10.0 mi NE 6.9 mph - N/A   Scattered Clouds
3:35 AM 55.4 °F - 51.8 °F 88% 30.25 in 10.0 mi NE 8.1 mph - N/A   Scattered Clouds
3:55 AM 57.2 °F - 53.6 °F 88% 30.25 in 10.0 mi ENE 6.9 mph - N/A   Mostly Cloudy
4:15 AM 59.0 °F - 53.6 °F 82% 30.24 in 10.0 mi NE 6.9 mph - N/A   Mostly Cloudy
4:35 AM 59.0 °F - 53.6 °F 82% 30.25 in 10.0 mi NE 8.1 mph - N/A   Overcast
4:55 AM 59.0 °F - 53.6 °F 82% 30.25 in 10.0 mi NE 5.8 mph - N/A   Scattered Clouds
5:15 AM 57.2 °F - 53.6 °F 88% 30.25 in 10.0 mi NE 4.6 mph - N/A   Clear
5:35 AM 55.4 °F - 53.6 °F 94% 30.25 in 10.0 mi NNE 4.6 mph - N/A   Scattered Clouds
5:50 AM 57.2 °F - 53.6 °F 88% 30.26 in 10.0 mi NNE 4.6 mph - N/A   Clear
7:50 AM 59.0 °F - 55.4 °F 88% 30.29 in 15.0 mi Calm Calm - N/A   Clear
8:50 AM 68.0 °F - 57.2 °F 68% 30.30 in 15.0 mi Calm Calm - N/A   Mostly Cloudy
9:50 AM 69.8 °F - 57.2 °F 64% 30.31 in 15.0 mi ENE 6.9 mph - N/A   Mostly Cloudy
12:50 PM 80.6 °F 81.1 °F 59.0 °F 48% 30.25 in 15.0 mi East 16.1 mph 23.0 mph N/A   Mostly Cloudy
1:52 PM 78.8 °F - 57.2 °F 47% 30.24 in 15.0 mi East 13.8 mph 20.7 mph N/A   Mostly Cloudy
2:53 PM 78.8 °F - 57.2 °F 47% 30.23 in 15.0 mi ESE 13.8 mph 23.0 mph N/A   Mostly Cloudy
3:54 PM 77.0 °F - 57.2 °F 50% 30.23 in 15.0 mi East 11.5 mph 20.7 mph N/A   Mostly Cloudy
4:50 PM 77.0 °F - 55.4 °F 47% 30.23 in 20.0 mi East 11.5 mph - N/A   Scattered Clouds
5:55 PM 71.6 °F - 57.2 °F 60% 30.24 in 20.0 mi East 11.5 mph - N/A   Scattered Clouds
6:50 PM 71.6 °F - 57.2 °F 60% 30.25 in 15.0 mi East 10.4 mph - N/A   Scattered Clouds
8:55 PM 66.2 °F - 59.0 °F 78% 30.27 in 10.0 mi ENE 5.8 mph - N/A   Scattered Clouds
9:50 PM 64.4 °F - 59.0 °F 83% 30.27 in 10.0 mi ENE 5.8 mph - N/A   Partly Cloudy
9:55 PM 62.6 °F - 59.0 °F 88% 30.26 in 10.0 mi ENE 4.6 mph - N/A   Clear
10:15 PM 62.6 °F - 59.0 °F 88% 30.26 in 10.0 mi ENE 4.6 mph - N/A   Clear
10:35 PM 62.6 °F - 59.0 °F 88% 30.26 in 10.0 mi NE 5.8 mph - N/A   Clear
10:55 PM 62.6 °F - 59.0 °F 88% 30.26 in 10.0 mi ENE 5.8 mph - N/A   Clear
11:15 PM 62.6 °F - 59.0 °F 88% 30.26 in 10.0 mi ENE 5.8 mph - N/A   Clear
11:35 PM 62.6 °F - 59.0 °F 88% 30.25 in 10.0 mi ENE 4.6 mph - N/A   Clear
11:55 PM 62.6 °F - 60.8 °F 94% 30.25 in 10.0 mi ENE 4.6 mph - N/A   Clear